Change the Weather History Date:

Monday, April 29, 2013

  Actual Average Record
Temperature  
Mean Temperature 60 °F 62 °F  
Max Temperature 73 °F 74 °F 89 °F (1987)
Min Temperature 46 °F 51 °F 33 °F (2008)
Degree Days  
Heating Degree Days 5 5  
Month to date heating degree days 300 240  
Since 1 July heating degree days 4126 4059  
Cooling Degree Days 0 2  
Month to date cooling degree days 31 36  
Year to date cooling degree days 31 43  
Growing Degree Days 10 (Base 50)    
Moisture  
Dew Point 51 °F    
Average Humidity 77    
Maximum Humidity 100    
Minimum Humidity 53    
Precipitation  
Precipitation 0.00 in 0.17 in 4.13 in (1984)
Month to date precipitation 5.37 4.59  
Year to date precipitation 21.14 16.11  
Snow  
Snow 0.00 in 0.00 in - ()
Month to date snowfall 0.0 0.0  
Since 1 July snowfall 6.8 9.1  
Snow Depth 0.00 in    
Sea Level Pressure  
Sea Level Pressure 29.95 in    
Wind  
Wind Speed 5 mph (South)    
Max Wind Speed 10 mph    
Max Gust Speed 15 mph    
Visibility 6 miles    
Events Fog    
T = Trace of Precipitation, MM = Missing Value Source: NWS Daily Summary

Daily Weather History Graph

Daily Weather History Graph

Search for Another Location

Airport or City:

Trip Planner

Search our weather history database for the weather conditions in past years. The results will help you decide how hot, cold, wet, or windy it might be!

Date:

Astronomy

Apr. 29, 2013 Rise Set
Actual Time 6:02 AM CDT 7:42 PM CDT
Civil Twilight 5:34 AM CDT 8:10 PM CDT
Nautical Twilight 5:01 AM CDT 8:44 PM CDT
Astronomical Twilight 4:26 AM CDT 9:19 PM CDT
Moon No Moon Rise 9:25 AM CDT (4/29)
Length of Visible Light 14h 35m
Length of Day
13h 40m
Waning Gibbous, 80% of the Moon is Illuminated
Apr 29
Waning Gibbous
May 2
Last Quarter
May 9
New
May 17
First Quarter
May 24
Full

Hourly Weather History & Observations

Time (CDT) Temp. Windchill Dew Point Humidity Pressure Visibility Wind Dir Wind Speed Gust Speed Precip Events Conditions
12:03 AM 53.6 °F - 51.8 °F 94% 29.95 in 3.0 mi Calm Calm - N/A   Clear
12:17 AM 50.0 °F - 50.0 °F 100% 29.95 in 2.0 mi Calm Calm - N/A   Clear
12:32 AM 50.0 °F - 48.2 °F 94% 29.95 in 0.8 mi South 3.5 mph - N/A   Clear
12:53 AM 48.9 °F - 48.0 °F 97% 29.95 in 0.2 mi Calm Calm - N/A Fog Fog
12:58 AM 48.2 °F - 48.2 °F 100% 29.95 in 0.2 mi Calm Calm - N/A Fog Fog
1:05 AM 48.2 °F - 46.4 °F 93% 29.95 in 0.2 mi Calm Calm - N/A Fog Fog
1:24 AM 46.4 °F - 46.4 °F 100% 29.95 in 1.2 mi Calm Calm - N/A   Partly Cloudy
1:26 AM 46.4 °F - 46.4 °F 100% 29.95 in 3.0 mi Calm Calm - N/A   Partly Cloudy
1:32 AM 46.4 °F - 44.6 °F 93% 29.95 in 1.2 mi Calm Calm - N/A   Partly Cloudy
1:34 AM 46.4 °F - 44.6 °F 93% 29.95 in 0.5 mi Calm Calm - N/A Fog Fog
1:41 AM 46.4 °F - 46.4 °F 100% 29.95 in 0.2 mi Calm Calm - N/A Fog Fog
1:48 AM 46.4 °F 45.2 °F 46.4 °F 100% 29.95 in 0.5 mi South 3.5 mph - N/A Fog Fog
1:53 AM 46.9 °F - 46.0 °F 97% 29.95 in 0.5 mi South 4.6 mph - N/A Fog Fog
1:59 AM 48.2 °F - 46.4 °F 93% 29.95 in 1.2 mi South 6.9 mph - N/A   Partly Cloudy
2:03 AM 50.0 °F - 48.2 °F 94% 29.95 in 3.0 mi South 6.9 mph - N/A   Partly Cloudy
2:53 AM 48.9 °F - 48.0 °F 97% 29.95 in 4.0 mi South 3.5 mph - N/A   Clear
3:53 AM 51.1 °F - 50.0 °F 96% 29.96 in 5.0 mi South 5.8 mph - N/A   Overcast
4:53 AM 50.0 °F - 48.9 °F 96% 29.96 in 5.0 mi South 3.5 mph - N/A   Clear
5:53 AM 50.0 °F - 48.0 °F 93% 29.98 in 5.0 mi South 5.8 mph - N/A   Clear
6:53 AM 51.1 °F - 50.0 °F 96% 29.99 in 4.0 mi South 5.8 mph - N/A   Clear
7:53 AM 55.0 °F - 53.1 °F 93% 29.99 in 7.0 mi SSE 6.9 mph - N/A   Clear
8:53 AM 60.1 °F - 54.0 °F 80% 30.00 in 10.0 mi SSE 6.9 mph - N/A   Clear
9:53 AM 64.0 °F - 54.0 °F 70% 30.00 in 10.0 mi SSE 9.2 mph - N/A   Scattered Clouds
10:53 AM 66.0 °F - 54.0 °F 65% 30.00 in 10.0 mi South 5.8 mph - N/A   Clear
11:35 AM 66.2 °F - 55.4 °F 68% 30.01 in 10.0 mi South 6.9 mph - N/A   Mostly Cloudy
11:53 AM 66.0 °F - 54.0 °F 65% 29.99 in 10.0 mi Variable 4.6 mph - N/A   Mostly Cloudy
12:53 PM 68.0 °F - 55.9 °F 65% 29.98 in 10.0 mi WSW 8.1 mph - N/A   Mostly Cloudy
1:53 PM 69.1 °F - 55.0 °F 61% 29.96 in 10.0 mi Variable 6.9 mph - N/A   Scattered Clouds
2:53 PM 72.0 °F - 57.0 °F 59% 29.94 in 10.0 mi WSW 8.1 mph - N/A   Partly Cloudy
3:53 PM 72.0 °F - 55.9 °F 57% 29.91 in 10.0 mi SSW 5.8 mph - N/A   Clear
4:53 PM 73.0 °F - 55.9 °F 55% 29.89 in 10.0 mi Variable 5.8 mph - N/A   Clear
5:53 PM 72.0 °F - 55.9 °F 57% 29.89 in 10.0 mi SSE 8.1 mph - N/A   Clear
6:53 PM 71.1 °F - 55.0 °F 57% 29.88 in 10.0 mi South 5.8 mph - N/A   Clear
7:53 PM 66.0 °F - 55.9 °F 70% 29.88 in 10.0 mi Calm Calm - N/A   Clear
8:53 PM 64.9 °F - 55.9 °F 73% 29.89 in 10.0 mi Calm Calm - N/A   Clear
9:53 PM 63.0 °F - 55.0 °F 75% 29.90 in 10.0 mi South 3.5 mph - N/A   Clear
10:53 PM 55.0 °F - 53.1 °F 93% 29.91 in 10.0 mi South 3.5 mph - N/A   Clear
11:53 PM 57.9 °F - 54.0 °F 87% 29.91 in 10.0 mi SSE 5.8 mph - N/A   Clear